Regional Weather Roundup
Issued by NWS

Home | Current Version | Previous Version | Text Only | Print | Product List | Glossary Off
Versions: 1 2 3 4 5 6 7 8 9 10 11 12 13 14 15 16 17 18 19 20 21 22 23 24 25 26 27 28 29 30 31 32 33 34 35 36 37 38 39 40 41 42 43 44 45 46 47 48 49 50

000
ASUS43 KMPX 202201
RWRMN
WEATHER ROUNDUP FOR MINNESOTA
NATIONAL WEATHER SERVICE TWIN CITIES/CHANHASSEN MN
500 PM CDT FRI APR 20 2018


NOTE: "FAIR" INDICATES FEW OR NO CLOUDS BELOW 12,000 FEET WITH NO
SIGNIFICANT WEATHER AND/OR OBSTRUCTIONS TO VISIBILITY. N/A MEANS
CURRENT SKY AND/OR WEATHER CONDITIONS ARE NOT AVAILABLE.

MNZ060>063-068>070-202300-
   Twin Cities Metro

CITY           SKY/WX    TMP DP  RH WIND       PRES   REMARKS
TWIN CITIES    PTSUNNY   52  16  24 CALM      30.42F
ST PAUL        FAIR      51  24  34 SE6       30.43F
CRYSTAL        FAIR      52  19  27 CALM      30.40F
BLAINE         PTSUNNY   54  19  26 SE6       30.41F
LAKEVILLE      FAIR      46  27  46 SE3       30.42F
EDEN PRAIRIE   FAIR      50  24  36 S5        30.41F
SOUTH ST PAUL  FAIR      51  22  31 CALM      30.42F
LAKE ELMO      FAIR      50  19  29 CALM      30.43F
$$
MNZ001>005-007-008-013>017-022>024-027-028-202300-
   Northwest Minnesota

CITY           SKY/WX    TMP DP  RH WIND       PRES   REMARKS
BEMIDJI        FAIR      56  26  31 S9G18     30.35S
HALLOCK        FAIR      57  34  41 S12       30.34S
ROSEAU         FAIR      55  37  50 SW12      30.35F
WARROAD        FAIR      57  36  44 W8        30.35S
THIEF RVR FALL FAIR      54  33  45 VRB6      30.37F
CROOKSTON      FAIR      55  36  47 SW12      30.36F
FOSSTON        FAIR      57  28  33 W6        30.36F
DETROIT LAKES  FAIR      54  19  26 SE5       30.37F
MOORHEAD       FAIR      54  21  28 S9        30.36F
PARK RAPIDS    FAIR      53  26  35 S8        30.36F
MAHNOMEN       FAIR      55  29  36 S5G16     30.36S
$$
MNZ006-009>011-018-025>026-202300-
   North Central Minnesota

CITY           SKY/WX    TMP DP  RH WIND       PRES   REMARKS
BAUDETTE       PTSUNNY   59  28  30 NW5       30.33F
FLAG ISLAND    FAIR      45  25  45 SE10      30.33S
INTL FALLS     FAIR      59  20  22 VRB3      30.34F
WASKISH        PTSUNNY   55  30  38 W6        30.35F
BIG FORK       FAIR      57  21  24 S3        30.34F
LONGVILLE      FAIR      55  25  30 S5        30.37S
GRAND RAPIDS   FAIR      54  24  31 SW5       30.37F
CRANE LAKE     FAIR      57  12  17 CALM      30.36S
ORR            FAIR      57  14  18 W5        30.33S
COOK           FAIR      57  18  21 S3        30.35S
WALKER         FAIR      54  26  34 E6        30.36S
$$
MNZ012-019>021-037-202300-
   Northeast Minnesota

CITY           SKY/WX    TMP DP  RH WIND       PRES   REMARKS
DULUTH         FAIR      55  24  30 VRB5      30.37F
ELY            FAIR      55  10  16 CALM      30.34F
HIBBING        FAIR      55  19  24 SW5       30.35F
EVELETH        FAIR      56  18  22 NW6       30.36F
DULUTH HARBOR  FAIR      54  27  35 NE5       30.39F
TWO HARBORS    FAIR      59  32  36 S9        30.36S
SILVER BAY     FAIR      57  21  24 SW10      30.36S
GRAND MARAIS     N/A     39  33  79 S5        30.40S
G MARAIS ARPRT FAIR      50   9  18 S7        30.38S
$$
MNZ029>031-032-039>041-046>048-054>057-064-202300-
   West Central Minnesota

CITY           SKY/WX    TMP DP  RH WIND       PRES   REMARKS
FERGUS FALLS   FAIR      54  28  37 S8        30.34F
WHEATON        MOSUNNY   52  37  58 SE13      30.38S
MORRIS         MOSUNNY   52  37  58 S14       30.36F
ALEXANDRIA     FAIR      53  26  35 SW7       30.38F
ELBOW LAKE     FAIR      52  31  44 S9        30.37F
WADENA         FAIR      52  27  37 SE8       30.37F
GLENWOOD       FAIR      52  28  40 SE7       30.38F
APPLETON       CLOUDY    48  32  53 S9        30.39S
BENSON         CLOUDY    52  36  54 S10       30.40S
ORTONVILLE     CLOUDY    46  34  61 SE9       30.38S
MADISON        CLOUDY    43  36  75 SE10      30.39S
WILLMAR        FAIR      48  37  66 SE10      30.42F
$$
MNZ033>034-036-042>043-049>051-058-059-202300-
   Central Minnesota

CITY           SKY/WX    TMP DP  RH WIND       PRES   REMARKS
ST CLOUD       FAIR      50  23  34 SE8       30.40F
SAUK CENTRE    FAIR      50  25  37 S5        30.38F
PAYNESVILLE    FAIR      49  29  44 S7        30.40F
AITKIN         FAIR      52  21  30 SW3       30.37F
PINE RIVER     FAIR      52  25  35 S8        30.40S
BRAINERD       FAIR      53  18  25 S7        30.39F
STAPLES        FAIR      52  16  24 CALM      30.38F
LONG PRAIRIE   FAIR      50  25  37 CALM      30.39F
LITTLE FALLS   FAIR      50  12  22 CALM      30.40F
LITCHFIELD     FAIR      46  23  39 S3        30.42
BUFFALO        FAIR      48  22  36 SE3       30.42F
MAPLE LAKE     FAIR      48  26  43 SE3       30.42F
HUTCHINSON     FAIR      46  26  45 SE5       30.44S
$$
MNZ037-044-045-052-053-202300-
   East Central Minnesota

CITY           SKY/WX    TMP DP  RH WIND       PRES   REMARKS
PRINCETON      FAIR      54  19  26 S6        30.41F
MORA           FAIR      50  21  32 S6        30.42F
CAMBRIDGE      FAIR      54  30  40 SW3       30.41F
RUSH CITY      FAIR      52  19  27 S6        30.42S
MOOSE LAKE     FAIR      54  27  35 SW5       30.38S
HINCKLEY       FAIR      54  27  35 S8        30.41S
CLOQUET        FAIR      55  19  24 S7        30.37F
MCGREGOR       FAIR      54  25  32 S7        30.39S
$$
MNZ071>073-080-081-089-090-097-098-202300-
   Southwest Minnesota

CITY           SKY/WX    TMP DP  RH WIND       PRES   REMARKS
MONTEVIDEO     MOSUNNY   48  32  53 S6        30.40S
GRANITE FALLS  MOSUNNY   45  33  65 E13       30.41S
CANBY          CLOUDY    43  34  71 E7        30.39S
MARSHALL       MOSUNNY   41  31  67 SE13      30.39F
REDWOOD FALLS  PTSUNNY   42  32  67 SE10      30.41F
OLIVIA         CLOUDY    46  32  57 SE9       30.40F
PIPESTONE      CLOUDY   N/A N/A N/A SE8       30.37R
WINDOM         CLOUDY    39  21  48 E7        30.40S
WORTHINGTON    CLOUDY    40  33  76 E8        30.39R
JACKSON        CLOUDY    36  30  80 E6        30.40S
TRACY          CLOUDY    42  33  71 SE8       30.39S
SLAYTON        CLOUDY    39  32  75 E8        30.38S
$$
MNZ065>067-074>077-082>085-091>093-202300-
   South Central Minnesota

CITY           SKY/WX    TMP DP  RH WIND       PRES   REMARKS
MANKATO        FAIR      44  24  45 SE7       30.43F
NEW ULM        MOSUNNY   45  25  45 SE5       30.42F
ST JAMES       CLOUDY    39  28  65 E6        30.43S
FAIRMONT       CLOUDY    39  27  62 E5        30.42S
GLENCOE        FAIR      48  30  48 CALM      30.42S
OWATONNA       FAIR      48  27  43 SE3       30.42F
WASECA         FAIR      43  28  56 SE3       30.44S
ALBERT LEA     FAIR      43  21  42 E6        30.42F
$$
MNZ078>079-086>088-094>096-202300-
   Southeast Minnesota

CITY           SKY/WX    TMP DP  RH WIND       PRES   REMARKS
ROCHESTER      FAIR      44  29  55 SW6       30.43F
RED WING       FAIR      52  16  24 W3        30.43S
STANTON        FAIR      47  28  47 SW6       30.42F
DODGE CENTER   FAIR      45  28  53 S5        30.43F
WINONA         FAIR      54  27  35 NW7       30.41S
AUSTIN         FAIR      43  25  49 E3        30.42F
PRESTON        FAIR      46  19  34 CALM      30.43F
$$
ABBREVIATIONS USED IN REMARKS
   TC - TEMPERATURES IN CELSIUS
  WCI - WIND CHILL INDEX
   HX - HEAT INDEX
  VSB - VISIBILITY
$$



USA.gov is the U.S. government's official web portal to all federal, state and local government web resources and services.